Dewpoint
10 9 8 9 9 10 10 10 13 15 14 18 22 25 19 22 17 12 20 22 23 18 17 21 22 23 23 24 35 33 35 30 28 31 32 30 32 34 34 38 39 39 38 40 41 40 37 37 36 36 32 34 39 38 37 36 38 41 44 49 47 46 47 49 49 51 52 54 55 57 58 58 58 58 57 57 57 57 58 58 58 58 59 58 58 57 58
15 13 12 11 10 12 11 13 12 13 17 18 18 18 18 19 21 22 21 24 25 21 19 21 23 27 26 23 25 30 26 30 27 28 31 30 29 28 30 34 36 38 38 39 39 41 42 34 33 32 34 34 34 36 37 36 38 40 44 50 47 45 45 46 50 50 49 50 51 52 53 53 55 59 58 58 58 57 57 57 57 58 58 57 57 57 56
20 17 14 12 11 13 14 12 11 13 15 14 17 19 21 24 22 22 24 24 24 20 23 21 22 27 24 25 23 22 24 23 26 25 27 29 31 28 28 33 34 36 38 38 36 36 38 37 36 37 39 33 33 35 41 37 34 34 33 44 47 50 44 47 49 49 49 50 51 50 50 51 52 50 49 55 58 58 58 57 57 57 57 56 56 56 55
21 18 15 13 13 14 15 16 19 21 22 22 22 22 23 23 24 24 26 23 23 19 22 22 23 21 21 20 20 22 22 20 24 24 25 28 30 30 29 31 33 34 34 36 36 37 38 36 36 35 37 35 36 37 36 32 36 36 44 49 45 47 46 47 45 46 47 47 47 48 49 48 48 49 51 49 50 53 57 57 57 57 57 56 56 56 56
18 16 16 14 17 18 17 21 22 21 21 18 19 19 23 24 26 24 21 19 19 20 22 21 21 25 24 20 18 23 25 28 24 22 25 27 28 29 31 30 31 31 31 33 38 36 34 32 30 31 30 34 38 36 40 46 35 43 38 43 37 46 45 38 39 48 46 44 46 48 48 48 50 50 47 49 50 49 49 56 54 54 54 54 54 55 55
18 18 20 21 18 15 15 22 23 23 22 22 24 24 23 25 25 19 19 19 21 21 25 25 24 26 27 28 28 26 26 28 28 27 29 26 28 31 31 30 30 33 35 34 36 38 38 35 34 33 37 34 38 47 39 33 39 35 32 35 41 42 45 45 46 47 43 42 43 46 48 48 49 48 48 48 51 52 51 50 52 54 53 53 53 54 53
18 20 21 16 15 15 21 21 20 23 25 20 19 23 23 22 21 22 20 19 21 22 23 23 24 26 25 25 24 24 23 28 28 28 28 31 38 37 33 37 35 38 40 38 39 37 36 35 40 41 34 36 42 34 40 36 36 39 34 31 40 45 47 45 46 45 40 43 47 47 45 44 47 44 46 49 48 49 50 51 51 50 50 51 53 52 53
19 18 16 13 13 18 20 19 22 22 22 21 22 21 19 20 24 26 25 19 19 22 21 20 22 21 23 24 24 24 26 30 30 29 30 27 34 33 33 37 39 39 35 39 38 38 39 34 30 28 33 36 34 36 35 36 40 37 35 36 34 45 44 46 38 38 40 46 49 48 48 48 47 46 48 50 50 51 50 50 49 48 49 50 51 52 53
16 17 15 15 18 18 19 21 30 28 26 25 24 20 24 26 23 21 22 22 22 23 22 22 23 26 25 25 26 26 25 27 28 29 28 30 39 33 34 33 34 39 36 34 40 41 36 33 31 32 32 33 38 36 33 32 32 33 40 35 32 41 40 37 38 38 38 40 46 47 46 44 44 47 47 47 49 50 49 49 49 49 48 48 49 50 51
17 14 13 13 13 12 18 28 29 28 29 30 28 24 21 22 20 24 24 24 25 25 22 23 24 27 23 23 27 27 25 24 26 26 28 29 30 31 31 32 35 38 36 32 34 37 34 35 34 31 32 36 35 35 34 32 30 31 30 32 32 32 34 34 37 38 38 36 39 45 45 42 44 48 49 49 48 50 48 48 48 48 48 48 48 48 50
17 16 14 13 12 16 26 27 27 29 28 29 28 22 13 24 24 24 23 23 24 25 25 24 25 25 21 22 28 27 27 26 25 24 24 23 28 28 29 34 33 34 41 33 31 32 33 31 32 38 38 36 33 33 34 33 33 32 34 32 34 33 36 34 34 36 38 39 39 41 41 42 46 46 47 47 47 49 48 48 48 48 46 45 48 46 45
16 17 14 14 17 18 28 28 27 25 26 29 26 16 14 26 25 24 24 22 22 23 24 25 25 23 23 23 27 27 26 26 28 27 25 25 25 24 25 29 33 33 31 29 34 33 30 33 37 35 36 33 36 36 35 35 35 34 36 38 35 36 36 39 39 38 41 41 42 41 40 44 47 47 49 48 49 48 49 46 45 46 48 46 45 43 42
15 19 14 15 16 29 30 26 26 24 29 24 16 14 22 25 24 24 24 24 24 25 24 25 24 24 25 25 26 28 26 25 26 27 28 26 24 23 23 24 33 25 23 27 24 28 28 30 31 32 32 35 36 35 36 37 36 37 38 38 38 38 38 37 36 36 37 40 43 44 43 46 48 48 47 48 50 50 49 48 48 48 48 46 42 41 40
13 16 13 14 18 28 27 25 25 25 24 18 15 21 26 27 22 23 22 23 24 24 24 24 24 25 25 26 25 25 25 25 27 25 25 26 26 25 27 32 30 28 25 29 28 28 28 29 28 30 31 32 31 31 34 35 37 36 35 34 35 36 36 36 37 37 39 41 44 46 46 46 48 48 49 49 48 48 47 46 47 49 46 43 41 39 38
18 18 16 14 12 27 27 25 22 24 20 22 23 24 23 23 22 22 22 22 22 22 22 23 25 24 23 24 24 25 25 24 25 25 25 27 26 27 29 28 25 26 24 24 24 26 26 27 29 29 32 32 32 34 33 35 36 35 35 36 34 35 35 36 38 39 41 43 44 45 44 44 46 47 46 45 46 48 48 47 47 48 46 42 40 38 36
14 15 15 16 22 23 26 20 18 24 21 22 23 22 19 21 20 20 20 20 21 22 22 22 23 23 23 23 24 24 24 25 25 25 26 26 25 25 23 22 23 24 24 25 25 25 25 27 28 30 32 31 31 32 34 34 35 36 35 34 34 35 36 38 38 38 38 41 43 45 45 45 44 44 43 44 45 46 45 45 47 47 44 42 40 37 35
19 17 18 20 22 20 18 21 19 20 21 21 20 21 18 18 17 20 18 19 22 21 20 21 21 21 22 22 22 21 22 23 22 23 21 23 23 22 23 21 24 23 20 23 25 25 26 28 29 29 29 30 30 33 35 36 34 35 36 35 36 37 37 37 38 38 40 40 41 41 41 41 41 41 43 46 44 44 45 46 47 46 43 42 40 38 36
16 16 18 20 15 15 17 16 18 18 19 17 18 18 17 18 19 19 19 19 19 19 20 20 20 20 20 21 20 19 20 19 19 22 20 18 20 20 21 23 23 23 21 23 23 26 25 26 29 31 32 31 33 34 35 35 34 34 35 36 37 37 37 37 36 33 36 37 37 39 40 40 41 40 41 43 45 45 46 47 46 45 41 40 38 37 36
14 13 14 14 15 15 17 16 17 17 17 17 18 18 17 18 19 20 20 21 21 21 21 20 19 20 20 20 20 20 19 19 19 18 18 19 21 22 21 22 25 24 23 21 23 27 28 29 29 30 32 33 32 33 34 33 33 33 33 36 37 38 37 36 36 36 36 36 37 39 40 39 41 41 44 47 47 46 46 45 44 43 39 38 36 34 34
14 14 14 16 18 19 18 16 15 16 17 17 18 18 18 20 20 20 20 20 19 20 19 19 19 19 19 18 19 18 17 17 17 17 18 19 18 19 20 21 23 21 21 21 24 25 27 30 31 32 32 31 31 33 32 33 33 35 37 38 37 37 36 36 36 35 36 34 36 38 38 39 40 45 46 46 45 45 43 44 42 40 38 37 35 35 34
14 14 14 16 16 16 16 16 16 17 17 19 21 21 20 20 21 22 21 22 22 22 23 26 27 26 26 25 24 23 22 23 24 22 19 20 20 21 19 21 25 24 25 23 25 28 30 31 32 32 32 32 32 34 35 35 37 39 39 37 38 37 37 37 37 37 38 38 38 38 40 42 39 38 43 44 42 39 39 41 42 39 38 37 35 34 32
14 14 15 16 14 14 14 16 17 18 20 21 21 22 23 25 24 25 26 27 28 28 28 28 27 27 28 28 26 25 26 26 26 26 26 24 23 20 21 24 23 23 26 28 29 29 30 31 32 32 33 33 33 33 34 37 40 39 39 38 38 37 37 37 37 38 39 38 39 40 43 39 37 35 33 34 37 38 37 34 34 34 35 37 39 37 35
14 14 13 17 18 19 20 20 21 21 21 22 24 25 28 29 28 29 28 28 29 29 29 29 29 30 30 29 29 29 27 28 29 29 28 27 27 28 27 23 23 24 26 29 29 30 30 32 32 32 32 32 39 40 39 38 38 38 37 38 38 38 37 38 40 42 42 42 43 42 39 38 36 34 33 33 33 33 33 33 33 33 33 32 32 31 31
18 18 21 23 23 22 22 22 22 23 26 27 27 28 29 31 29 28 28 28 27 27 28 29 30 30 29 28 28 27 27 28 29 30 30 30 30 28 25 30 32 34 37 37 34 29 30 30 29 31 34 39 40 39 38 38 37 37 37 37 37 38 38 39 41 42 43 44 42 39 39 36 34 32 31 31 32 33 33 32 32 32 32 32 32 32 32
22 27 25 24 23 22 24 25 25 26 28 28 28 28 28 27 27 27 27 27 27 27 28 28 28 28 28 28 28 28 28 29 31 32 33 34 33 31 31 30 31 33 33 32 32 33 33 35 37 38 40 41 39 38 38 37 37 37 37 37 37 38 39 39 41 42 42 41 41 40 38 37 36 33 31 30 30 30 31 32 32 32 32 32 32 32 32
24 23 24 24 25 26 28 25 26 26 27 27 27 27 28 30 28 29 27 27 28 29 31 33 33 34 34 34 34 34 35 35 36 35 34 34 35 36 33 35 38 39 36 34 33 34 34 35 36 37 39 39 38 38 38 37 37 37 37 37 38 37 38 39 39 41 41 41 40 38 36 34 32 31 31 29 29 28 28 27 29 30 32 32 32 32 32
24 25 25 25 25 25 25 25 25 26 26 27 27 27 27 29 32 31 30 30 30 33 33 33 34 34 33 34 34 34 34 34 34 35 35 34 34 35 34 34 35 36 35 35 35 35 35 36 35 35 39 39 38 38 37 36 36 35 35 35 36 36 33 35 37 36 36 34 34 34 34 32 32 31 30 30 29 28 28 29 29 28 28 29 31 31 31
25 25 25 25 25 25 26 27 27 28 27 26 29 30 30 31 30 29 29 29 30 31 31 31 31 30 31 31 31 31 32 32 32 32 33 33 34 34 34 35 34 34 34 34 35 34 34 35 35 37 40 38 38 37 36 36 36 35 34 34 34 34 35 34 33 33 34 35 37 37 37 36 32 31 30 29 29 29 29 29 29 27 27 28 29 32 32
26 25 27 27 28 28 30 29 28 28 29 30 32 31 30 29 29 29 29 30 30 29 30 30 30 30 30 30 30 30 30 30 30 31 32 33 33 33 34 34 34 34 34 34 33 33 33 33 35 38 39 40 38 37 36 36 37 36 35 34 37 37 31 30 31 32 34 35 35 35 32 31 30 30 29 29 29 29 29 29 29 28 28 28 30 31 32
27 27 27 28 29 29 29 29 29 30 30 30 30 29 29 29 28 28 29 29 29 29 29 29 28 29 29 29 28 28 28 28 29 30 32 32 32 32 32 32 32 32 32 32 32 32 32 32 33 39 39 40 39 39 39 41 42 41 42 42 43 42 35 32 31 33 34 34 34 31 31 32 32 32 30 30 30 30 30 30 30 30 29 28 30 28 29
28 29 29 29 29 29 30 30 30 29 29 29 29 29 29 28 28 28 28 28 28 27 27 27 28 28 28 28 28 28 28 28 29 31 31 31 31 32 32 32 31 30 30 31 31 32 33 33 33 41 41 41 41 42 43 44 44 44 45 44 43 34 32 33 33 34 32 31 31 31 31 32 31 31 31 31 31 31 31 30 30 31 30 30 30 30 31
29 29 29 28 29 29 30 30 29 29 29 29 28 28 28 27 27 27 27 28 27 27 27 27 27 28 28 28 29 29 28 29 30 29 30 31 31 32 32 33 32 33 33 33 33 33 33 35 36 41 43 44 43 43 44 44 44 45 44 38 39 37 35 33 35 32 30 30 31 33 30 31 30 30 29 29 30 30 30 30 31 31 32 32 30 29 30
29 28 28 29 29 30 30 29 29 29 29 28 29 28 28 27 27 28 28 28 28 28 28 28 29 29 29 30 30 30 30 30 30 30 30 30 31 32 32 33 33 33 33 33 34 35 35 36 43 43 43 43 43 43 44 44 43 44 44 42 38 36 34 33 31 32 33 33 32 32 31 31 31 32 30 30 30 29 29 29 30 32 33 31 30 31 30
30 30 31 31 31 30 29 29 29 29 29 28 28 28 28 28 29 28 28 29 29 28 29 29 29 30 30 31 31 31 31 29 28 28 29 30 31 31 32 32 33 33 33 34 35 37 38 42 43 43 42 42 42 43 43 44 43 42 41 39 36 36 35 32 31 32 33 31 31 30 33 32 33 31 30 31 31 31 30 31 31 31 33 33 32 31 31
31 30 32 32 31 31 30 29 29 29 28 28 28 29 30 30 29 29 30 29 29 29 30 30 31 31 31 31 30 30 30 30 29 29 29 30 30 31 31 32 32 33 33 33 33 35 41 42 41 41 41 41 42 43 44 43 42 43 43 40 35 35 34 35 30 32 33 34 35 34 33 33 32 32 32 32 32 31 31 31 31 31 32 32 32 32 32
30 30 31 31 31 30 29 29 29 29 29 29 30 31 31 31 30 29 28 29 29 30 30 31 31 31 31 30 30 29 29 30 30 30 29 29 30 30 31 30 30 31 31 31 32 33 37 37 34 35 38 39 40 40 40 42 43 42 41 41 39 36 34 32 32 35 33 32 32 32 32 32 32 32 32 32 32 33 32 32 32 31 31 31 31 31 31
30 31 30 30 30 30 30 29 30 30 30 30 31 31 31 30 30 30 29 28 29 30 31 31 31 30 30 31 30 30 30 30 30 30 30 30 30 29 29 29 29 29 29 28 30 33 34 36 34 35 37 38 38 38 36 34 41 42 41 41 39 38 35 32 39 36 31 31 32 32 32 32 32 32 32 32 32 31 32 31 31 31 31 30 30 30 30
30 31 30 30 30 30 30 31 31 31 30 30 31 31 30 29 29 28 27 27 28 29 30 30 30 31 30 30 30 29 29 30 30 30 31 31 30 28 28 28 28 28 28 28 31 33 33 34 34 36 38 37 37 37 35 33 34 42 41 41 38 36 34 36 36 34 32 33 33 33 32 32 32 32 31 31 30 31 30 30 31 30 29 29 30 29 30
29 29 29 30 31 31 31 31 31 31 29 28 28 26 27 26 24 22 22 26 25 25 27 28 29 29 27 25 25 26 29 30 30 30 30 30 30 28 27 28 29 30 30 32 32 32 33 34 34 35 36 36 37 37 35 33 34 41 38 36 37 35 34 33 32 32 32 32 32 32 31 31 31 31 31 31 30 30 30 30 30 30 30 30 30 30 30
30 30 30 31 30 31 30 29 29 28 28 24 22 23 24 23 22 22 21 23 22 22 23 24 25 24 23 22 22 22 22 23 27 29 29 29 29 28 28 29 30 31 32 32 32 32 32 33 34 34 34 35 37 38 36 34 34 36 35 34 34 33 32 32 32 32 32 31 31 31 30 30 30 30 30 30 30 30 30 30 29 29 29 29 29 29 29
29 30 29 30 30 29 28 26 26 25 23 23 22 23 22 21 21 20 21 21 22 22 22 23 22 23 20 20 19 20 21 22 23 24 25 26 26 26 25 26 28 30 31 31 31 31 31 31 32 33 34 35 36 34 37 35 37 36 35 32 32 32 32 32 31 31 31 31 31 30 30 30 30 30 30 29 29 29 29 29 28 28 28 28 28 28 28
29 28 29 30 30 29 27 25 22 21 22 22 21 20 21 20 20 19 20 20 21 23 23 24 24 20 19 19 19 18 18 19 22 23 23 23 23 23 24 24 26 28 30 30 30 30 30 30 31 31 32 35 35 32 33 36 36 37 36 35 32 32 32 31 31 31 31 31 30 30 31 30 30 30 29 29 28 28 28 28 28 28 28 28 27 27 27
28 28 28 29 30 29 26 22 19 19 18 19 20 20 20 20 20 18 18 19 20 21 22 22 24 24 21 18 18 18 17 16 17 20 22 22 23 23 22 23 24 25 29 28 28 27 27 27 28 29 30 32 34 32 32 35 35 33 34 35 34 32 31 31 30 31 30 30 29 29 29 29 29 29 29 28 27 27 27 27 27 27 27 27 26 26 26
29 29 28 29 29 28 27 23 22 20 19 19 20 20 20 20 20 21 20 19 19 20 20 20 21 23 23 19 18 18 17 16 14 16 18 19 21 23 23 23 23 25 29 27 25 25 25 26 27 29 30 30 31 32 35 34 33 31 31 31 31 32 31 31 30 29 29 29 29 28 28 29 28 28 27 28 27 27 28 28 27 27 27 27 26 26 26
29 29 29 29 29 29 26 22 21 19 19 19 18 18 20 19 20 21 20 19 18 18 20 19 19 21 22 22 19 19 19 18 17 16 17 20 21 21 23 26 23 25 27 28 25 24 25 26 28 30 30 30 30 29 28 27 28 29 30 29 29 28 28 28 28 28 28 28 28 27 28 28 27 27 27 28 28 28 28 28 27 27 27 27 26 26 26
29 30 29 30 30 30 28 25 21 19 19 17 19 20 21 21 20 20 19 19 20 19 17 17 18 18 19 20 21 19 18 19 20 20 20 21 21 23 24 26 24 26 27 27 24 24 24 28 29 29 29 29 29 28 27 27 27 27 26 26 27 27 27 27 26 27 26 26 26 26 26 26 26 26 26 27 27 28 28 29 28 27 27 27 26 26 26
31 31 31 31 30 31 30 28 23 20 19 19 20 19 19 19 20 20 20 19 19 20 18 17 16 16 17 17 18 19 17 15 16 17 19 19 21 24 27 28 27 27 26 23 23 24 26 27 29 29 29 29 28 25 25 25 26 26 26 26 26 25 25 25 26 26 26 26 27 28 28 28 27 26 27 27 27 28 28 28 28 28 27 27 27 27 27
32 32 32 31 31 31 31 30 24 20 19 20 20 18 16 20 20 20 20 20 20 20 20 20 18 17 15 16 16 18 18 17 16 15 16 18 19 20 21 21 25 26 27 26 26 26 27 28 29 29 29 28 26 24 25 25 25 25 25 25 25 25 25 25 25 24 25 26 26 26 26 26 26 26 26 25 25 27 26 25 24 25 25 26 27 27 27
33 33 34 33 31 31 30 30 26 22 20 18 18 17 17 18 17 19 20 21 20 17 16 17 18 18 17 18 18 18 18 16 17 17 17 18 18 18 18 23 27 29 28 23 23 22 26 28 28 28 28 27 23 23 24 25 25 25 24 24 25 25 26 25 25 25 24 25 25 25 26 25 25 25 25 25 25 25 25 23 22 23 23 24 25 26 27
32 33 33 32 31 31 31 30 28 21 19 16 15 17 17 17 18 19 14 12 13 14 13 14 14 13 12 13 15 16 17 19 17 15 15 16 18 18 18 18 21 25 25 22 23 21 26 27 27 27 26 23 23 23 23 24 24 25 25 25 25 24 25 27 27 28 26 25 25 26 26 25 25 25 26 25 24 24 22 21 23 23 26 26 23 24 24
29 30 31 31 32 31 32 32 29 23 19 15 19 18 17 14 17 16 16 17 18 15 14 14 12 11 8 8 12 16 18 16 18 21 19 19 17 20 20 19 17 20 21 22 23 21 21 21 23 24 24 24 22 23 23 23 23 24 25 24 25 24 24 24 24 24 24 23 23 23 23 24 24 23 25 23 25 23 20 20 21 20 20 20 21 21 22
26 28 31 31 32 33 35 36 31 27 27 21 16 19 16 16 20 14 13 16 15 14 13 14 12 12 11 8 7 7 13 15 14 13 18 18 15 14 16 20 15 18 16 19 19 20 21 22 25 26 26 22 21 21 25 25 22 22 22 24 25 24 24 23 24 23 24 22 22 21 21 20 20 20 20 22 21 19 20 21 21 20 20 20 21 22 22